Regional Weather Roundup
Issued by NWS

Home | Current Version | Previous Version | Text Only | Print | Product List | Glossary Off
Versions: 1 2 3 4 5 6 7 8 9 10 11 12 13 14 15 16 17 18 19 20 21 22 23 24 25 26 27 28 29 30 31 32 33 34 35 36 37 38 39 40 41 42 43 44 45 46 47 48 49 50

000
ASUS45 KBOI 281410
RWRID

IDAHO REGIONAL WEATHER ROUNDUP
NATIONAL WEATHER SERVICE BOISE ID
800 AM MDT TUE JUL 28 2015

NOTE: "FAIR" INDICATES FEW OR NO CLOUDS BELOW 12000 FEET
WITH NO SIGNIFICANT WEATHER AND/OR OBSTRUCTIONS TO VISIBILITY

IDZ012-014-281500-
SOUTHWEST IDAHO


CITY           SKY/WX    TMP DP  RH WIND       PRES   REMARKS
BOISE          SUNNY     56  38  50 S5        30.24R
CALDWELL       SUNNY     54  34  47 CALM      30.26R
MOUNTAIN HOME  SUNNY     53  35  49 S2        30.24R
$$

IDZ016-017-281500-
SOUTHCENTRAL IDAHO


CITY           SKY/WX    TMP DP  RH WIND       PRES   REMARKS
BURLEY         SUNNY     51  40  65 CALM      30.28R
JEROME         SUNNY     49  40  71 NE3       30.28R
TWIN FALLS     SUNNY     56  32  40 S12       30.25R
$$

IDZ019>023-281500-
SOUTHEAST IDAHO


CITY           SKY/WX    TMP DP  RH WIND       PRES   REMARKS
IDAHO FALLS    MOSUNNY   43  41  93 N6        30.32R
POCATELLO      SUNNY     47  44  90 W3        30.31R
REXBURG        MOSUNNY   41  37  86 CALM      30.31R
$$

IDZ006-010-011-018-031-032-281500-
CENTRAL IDAHO MOUNTAINS


CITY           SKY/WX    TMP DP  RH WIND       PRES   REMARKS
MCCALL         SUNNY     41  36  82 CALM      30.30R
HAILEY         SUNNY     43  36  75 W12       30.33R
STANLEY        NOT AVBL
SALMON         PTSUNNY   46  41  81 CALM      30.32R
CHALLIS        SUNNY     45  39  79 CALM      30.35R
$$

IDZ002-004-006-007-026-281500-
NORTHERN IDAHO


CITY           SKY/WX    TMP DP  RH WIND       PRES   REMARKS
LEWISTON       SUNNY     57  48  72 E7        30.23R
LOWELL           N/A     53  51  93 CALM      30.30R
COEUR D`ALENE  SUNNY     55  48  76 S12       30.21R
MULLAN PASS    SUNNY     43  38  82 CALM      30.27R
$$



USA.gov is the U.S. government's official web portal to all federal, state and local government web resources and services.